Regional Weather Roundup
Issued by NWS Little Rock, AR

Home | Current Version | Previous Version | Graphics & Text | Print | Product List | Glossary On
Versions: 1 2 3 4 5 6 7 8 9 10 11 12 13 14 15 16 17 18 19 20 21 22 23 24 25 26 27 28 29 30 31 32 33 34 35 36 37 38 39 40 41 42 43 44 45 46 47 48 49 50
000
ASUS44 KLZK 271805
RWRLZK

WEATHER ROUNDUP FOR ARKANSAS
NATIONAL WEATHER SERVICE LITTLE ROCK AR
100 PM CDT WED MAY 27 2015

NOTE: "FAIR" INDICATES FEW OR NO CLOUDS BELOW 12,000 FEET WITH NO
SIGNIFICANT WEATHER AND/OR OBSTRUCTIONS TO VISIBILITY.

ARZ001-003-010-029-271900-
NORTHWEST ARKANSAS

CITY           SKY/WX    TMP DP  RH WIND       PRES   REMARKS
FAYETTEVILLE   FAIR      81  67  62 MISG      30.11F
6HR MIN TEMP:  60; 6HR MAX TEMP:  81;

FORT SMITH     FAIR      84  65  52 CALM      30.08F HX  86
6HR MIN TEMP:  66; 6HR MAX TEMP:  84;

HARRISON       FAIR      80  62  54 VRB7      30.13F
6HR MIN TEMP:  68; 6HR MAX TEMP:  80;

BENTONVILLE    FAIR      81  64  57 SE6       30.13S
6HR MIN TEMP:  64; 6HR MAX TEMP:  81;

ROGERS         FAIR      79  65  62 NE6       30.13F
6HR MIN TEMP:  64; 6HR MAX TEMP:  80;

SILOAM SPGS    FAIR      81  63  54 SW5       30.12F
6HR MIN TEMP:  63; 6HR MAX TEMP:  81;

HIGHFILL       FAIR      80  65  59 CALM      30.11F
6HR MIN TEMP:  63; 6HR MAX TEMP:  81;

SPRINGDALE     MOSUNNY   79  63  57 SE6       30.14F
$$

ARZ004-005-016-271900-
NORTH CENTRAL ARKANSAS

CITY           SKY/WX    TMP DP  RH WIND       PRES   REMARKS
BATESVILLE     PTSUNNY   81  70  69 S6        30.12S
6HR MIN TEMP:  70; 6HR MAX TEMP:  82;

FLIPPIN          N/A     81  64  57 SE5       30.10S
6HR MIN TEMP:  66; 6HR MAX TEMP:  82;

MTN HOME       PTSUNNY   81  67  62 SE5       30.11F
6HR MIN TEMP:  67; 6HR MAX TEMP:  81;

$$

ARZ040-041-271900-
WEST CENTRAL ARKANSAS

CITY           SKY/WX    TMP DP  RH WIND       PRES   REMARKS
MENA           FAIR      84  64  51 W3        30.12F HX  86
MOUNT IDA      FAIR      82  63  52 VRB3      30.10S
6HR MIN TEMP:  68; 6HR MAX TEMP:  82;

$$

ARZ009-017-025-026-028-271900-
NORTHEAST ARKANSAS

CITY           SKY/WX    TMP DP  RH WIND       PRES   REMARKS
CORNING          N/A     77  72  83 S6        30.12F
JONESBORO      PTSUNNY   76  71  85 S15       30.13F
6HR MIN TEMP:  65; 6HR MAX TEMP:  76; 6HR PCP:  0.97;

NEWPORT        PTSUNNY   80  69  69 S16       30.13S
6HR MIN TEMP:  69; 6HR MAX TEMP:  82;

WALNUT RIDGE   FAIR      81  70  69 S14       30.11F
6HR MIN TEMP:  66; 6HR MAX TEMP:  81; 6HR PCP:  0.03;

BLYTHEVILLE    LGT RAIN  72  69  90 S12       30.13F
6HR MIN TEMP:  69; 6HR MAX TEMP:  79; 6HR PCP:  0.10;

$$

ARZ022-023-033-042-044-271900-
CENTRAL ARKANSAS

CITY           SKY/WX    TMP DP  RH WIND       PRES   REMARKS
LITTLE ROCK    PTSUNNY   81  68  64 S13       30.12S
6HR MIN TEMP:  69; 6HR MAX TEMP:  82;

N LITTLE ROCK  PTSUNNY   80  70  71 S7        30.12S
6HR MIN TEMP:  69; 6HR MAX TEMP:  80;

JACKSONVILLE   DRIZZLE   79  70  73 SE6       30.12F
SEARCY         CLOUDY    79  71  76 S9        30.14F
6HR MIN TEMP:  68; 6HR MAX TEMP:  80; 6HR PCP:  0.01;

HOT SPRINGS    FAIR      81  67  62 CALM      30.12S
6HR MIN TEMP:  71; 6HR MAX TEMP:  82;

RUSSELLVILLE   FAIR      83  68  60 VRB3      30.09F HX  86
6HR MIN TEMP:  70; 6HR MAX TEMP:  83;

CLINTON        PTSUNNY   82  70  65 E3        30.12S HX  86
$$

ARZ036-271900-
EAST ARKANSAS

CITY           SKY/WX    TMP DP  RH WIND       PRES   REMARKS
WEST MEMPHIS   FAIR      73  69  87 CALM      30.13F
6HR MIN TEMP:  70; 6HR MAX TEMP:  77; 6HR PCP:  0.18;

$$

ARZ050-053-066-070-073-271900-
SOUTHWEST ARKANSAS

CITY           SKY/WX    TMP DP  RH WIND       PRES   REMARKS
ARKADELPHIA    MOCLDY    83  70  64 VRB3      30.11F HX  87
6HR MIN TEMP:  70; 6HR MAX TEMP:  83;

CAMDEN         FAIR      82  64  54 NE5       30.11F
TEXARKANA      FAIR      82  66  58 S8        30.10F
6HR MIN TEMP:  66; 6HR MAX TEMP:  83;

EL DORADO      FAIR      79  65  62 S6        30.11F
6HR MIN TEMP:  69; 6HR MAX TEMP:  80;

DE QUEEN       FAIR      82  65  56 SE10      30.09F
6HR MIN TEMP:  66; 6HR MAX TEMP:  82;

$$

ARZ056-057-069-271900-
SOUTHEAST ARKANSAS

CITY           SKY/WX    TMP DP  RH WIND       PRES   REMARKS
PINE BLUFF     FAIR      78  70  76 S10       30.13F
6HR MIN TEMP:  70; 6HR MAX TEMP:  78; 6HR PCP:  0.03;

STUTTGART      PTSUNNY   73  68  83 S13       30.14F
6HR MIN TEMP:  72; 6HR MAX TEMP:  77; 6HR PCP:  0.01;

MONTICELLO     FAIR      72  70  93 SE7       30.14F
6HR MIN TEMP:  68; 6HR MAX TEMP:  72; 6HR PCP:  0.58;


$$





USA.gov is the U.S. government's official web portal to all federal, state and local government web resources and services.